EDT,Max TemperatureF,Mean TemperatureF,Min TemperatureF,Max Dew PointF,MeanDew PointF,Min DewpointF,Max Humidity, Mean Humidity, Min Humidity, Max Sea Level PressureIn, Mean Sea Level PressureIn, Min Sea Level PressureIn, Max VisibilityMiles, Mean VisibilityMiles, Min VisibilityMiles, Max Wind SpeedMPH, Mean Wind SpeedMPH, Max Gust SpeedMPH,PrecipitationIn, CloudCover, Events, WindDirDegrees
2013-3-1,30,21,11,10,6,3,73,58,42,30.26,30.21,30.15,10,10,10,14,7,18,0.00,0,,2
2013-3-2,23,15,6,12,4,-1,76,63,49,30.25,30.19,30.11,10,10,10,17,7,20,0.00,2,,334
2013-3-3,21,14,6,10,4,-1,80,66,51,30.12,30.09,30.05,10,10,10,16,6,20,0.00,0,,330
2013-3-4,25,15,5,13,4,-1,83,61,39,30.18,30.15,30.11,10,10,10,15,7,20,0.00,0,,318
2013-3-5,33,22,10,22,12,4,76,61,45,30.20,30.14,30.08,10,10,10,13,5,20,0.00,3,,59
2013-3-6,39,33,26,27,23,19,85,72,59,30.25,30.20,30.14,10,7,1,17,7,22,0.03,8,Snow,340
2013-3-7,32,28,24,25,21,18,88,77,66,30.43,30.32,30.21,10,9,2,15,9,20,0.02,8,Snow,303
2013-3-8,40,29,18,27,23,14,92,76,59,30.50,30.43,30.38,10,10,9,12,4,14,0.00,2,,215
2013-3-9,37,29,20,31,24,18,92,78,64,30.35,30.21,29.99,10,7,0,21,7,30,0.15,5,Fog-Snow,118
2013-3-10,36,35,33,34,32,30,100,95,89,29.96,29.87,29.81,9,3,0,16,6,22,0.70,8,Fog-Rain-Snow,102
2013-3-11,38,35,32,35,33,29,92,87,82,29.89,29.59,29.39,10,5,1,16,8,25,0.49,8,Rain-Snow,70
2013-3-12,32,24,16,29,21,15,85,77,68,29.82,29.63,29.40,10,4,0,18,9,26,0.21,8,Rain-Snow,295
2013-3-13,25,19,13,15,8,3,80,61,42,30.14,29.95,29.78,10,7,1,28,14,37,0.02,5,Snow,321
2013-3-14,33,20,6,21,5,-5,69,53,36,30.22,30.12,29.92,10,10,3,10,6,16,T,2,Snow,290
2013-3-15,31,24,16,26,17,1,85,67,49,29.98,29.86,29.75,10,8,2,24,13,33,0.02,5,Snow,292
2013-3-16,20,13,6,15,1,-7,88,62,35,30.05,29.99,29.92,10,8,0,13,7,,0.11,4,Fog-Snow,341
2013-3-17,22,13,3,13,0,-6,68,56,43,30.35,30.22,29.96,10,9,1,17,6,24,0.01,2,Snow,360
2013-3-18,32,21,9,23,12,-4,84,62,39,30.26,29.86,29.52,10,7,0,18,12,37,0.14,5,Fog-Snow,107
2013-3-19,31,27,22,26,23,18,92,83,74,29.72,29.49,29.37,10,3,0,23,12,35,0.34,8,Fog-Snow,208
2013-3-20,30,23,15,24,19,11,84,79,74,29.79,29.71,29.67,10,5,0,23,13,29,0.05,7,Fog-Snow,265
2013-3-21,27,24,20,20,15,11,81,68,55,29.89,29.84,29.77,10,10,9,21,11,28,T,6,,314
2013-3-22,32,26,20,21,17,11,81,69,57,30.03,29.94,29.85,10,10,10,17,9,24,0.00,5,,309
2013-3-23,36,25,14,21,19,12,92,72,51,30.11,30.07,30.00,10,10,7,21,7,26,0.00,1,,310
2013-3-24,36,29,22,21,18,14,88,64,40,30.10,30.00,29.88,10,10,10,13,6,19,0.00,1,,347
2013-3-25,40,34,28,26,21,19,69,57,44,29.98,29.91,29.88,10,10,9,14,8,22,T,8,Snow,25
2013-3-26,39,36,33,27,24,19,75,62,48,30.08,30.04,29.98,10,10,10,21,11,29,0.00,4,,329
2013-3-27,37,33,29,28,25,21,82,69,56,30.17,30.12,30.06,10,10,10,18,10,26,0.00,4,,300
2013-3-28,40,35,29,28,24,17,85,65,44,30.25,30.21,30.16,10,10,10,16,9,22,0.00,1,,299
2013-3-29,44,34,24,28,24,18,92,63,33,30.26,30.23,30.19,10,10,10,12,6,15,0.00,2,,294
2013-3-30,46,35,23,31,26,18,89,60,31,30.19,29.97,29.78,10,6,1,22,6,31,0.23,5,Rain-Snow,150
2013-3-31,37,30,22,34,28,16,100,82,63,29.75,29.58,29.52,10,4,0,28,8,39,0.08,8,Fog-Rain-Snow,273